Location: Holiday Acres Laynes 2 Mobile Home Park
(26.7249°N, 81.8671°W)
Time: 09:13:49
(UTC+00:00)

SPACEBEENZ-5 - Visible Passes

Search period start: 16 June 2021 00:00
Search period end: 26 June 2021 00:00
Orbit: 488 x 508 km, 97.4° (Epoch: 15 June)

Date Brightness Start Highest point End Pass type
(mag) Time Alt. Az. Time Alt. Az. Time Alt. Az.
16 Jun ? 07:52:04 17° NNW 07:52:04 17° NNW 07:52:59 10° N visible
17 Jun ? 07:31:47 17° N 07:31:47 17° N 07:32:47 10° N visible
18 Jun ? 07:11:30 14° NNE 07:11:30 14° NNE 07:12:12 10° NNE visible
19 Jun ? 08:25:51 10° NW 08:25:51 10° NW 08:25:56 10° NW visible
20 Jun ? 08:05:34 15° NNW 08:05:34 15° NNW 08:06:17 10° NNW visible
21 Jun ? 07:45:17 18° N 07:45:17 18° N 07:46:17 10° N visible
22 Jun ? 07:24:58 16° NNE 07:24:58 16° NNE 07:25:56 10° N visible
23 Jun ? 07:04:40 12° NE 07:04:40 12° NE 07:05:09 10° NNE visible
24 Jun ? 08:19:01 12° NW 08:19:01 12° NW 08:19:20 10° NNW visible
25 Jun ? 07:58:43 16° NNW 07:58:43 16° NNW 07:59:31 10° NNW visible
